TimeCET,TemperatureF,Dew PointF,Humidity,Sea Level PressureIn,VisibilityMPH,Wind Direction,Wind SpeedMPH,Gust SpeedMPH,PrecipitationIn,Events,Conditions,WindDirDegrees,DateUTC
12:00 AM,59.0,55.4,88,29.98,6.2,ENE,4.6,-,N/A,,Partly Cloudy,60,2011-11-14 23:00:00
12:30 AM,57.2,55.4,94,29.98,6.2,ENE,3.5,-,N/A,,Partly Cloudy,60,2011-11-14 23:30:00
1:00 AM,57,55,92,29.97,9,ENE,3.5,,,,Scattered Clouds,70,2011-11-15 00:00:00
1:00 AM,57.2,55.4,94,29.98,6.2,ENE,5.8,-,N/A,,Partly Cloudy,60,2011-11-15 00:00:00
1:30 AM,57.2,57.2,100,29.95,6.2,NE,5.8,-,N/A,,Partly Cloudy,50,2011-11-15 00:30:00
2:00 AM,59.0,57.2,94,29.95,6.2,NE,4.6,-,N/A,,Partly Cloudy,50,2011-11-15 01:00:00
2:30 AM,59.0,57.2,94,29.95,6.2,ENE,5.8,-,N/A,,Partly Cloudy,60,2011-11-15 01:30:00
3:00 AM,59.0,55.4,88,29.95,6.2,ENE,4.6,-,N/A,,Partly Cloudy,60,2011-11-15 02:00:00
3:30 AM,59.0,57.2,94,29.95,6.2,ENE,3.5,-,N/A,,Partly Cloudy,60,2011-11-15 02:30:00
4:00 AM,59.0,55.4,88,29.92,6.2,ENE,3.5,-,N/A,,Partly Cloudy,60,2011-11-15 03:00:00
4:30 AM,59.0,55.4,88,29.92,6.2,ENE,5.8,-,N/A,,Partly Cloudy,60,2011-11-15 03:30:00
5:00 AM,59.0,55.4,88,29.92,6.2,ENE,3.5,-,N/A,,Partly Cloudy,60,2011-11-15 04:00:00
5:30 AM,59.0,55.4,88,29.92,6.2,ENE,5.8,-,N/A,,Partly Cloudy,60,2011-11-15 04:30:00
6:00 AM,57.2,55.4,94,29.92,6.2,ENE,5.8,-,N/A,,Partly Cloudy,60,2011-11-15 05:00:00
6:30 AM,57.2,55.4,94,29.89,6.2,ENE,6.9,-,N/A,,Partly Cloudy,60,2011-11-15 05:30:00
7:00 AM,58,56,90,29.91,7,ENE,2.3,,,,Scattered Clouds,70,2011-11-15 06:00:00
7:00 AM,57.2,55.4,94,29.89,6.2,ENE,6.9,-,N/A,,Partly Cloudy,70,2011-11-15 06:00:00
7:30 AM,57.2,55.4,94,29.89,6.2,East,4.6,-,N/A,,Partly Cloudy,80,2011-11-15 06:30:00
8:00 AM,57.2,55.4,94,29.89,6.2,ENE,6.9,-,N/A,,Partly Cloudy,70,2011-11-15 07:00:00
8:30 AM,57.2,55.4,94,29.89,6.2,NE,6.9,-,N/A,,Partly Cloudy,50,2011-11-15 07:30:00
9:00 AM,60.8,59.0,94,29.89,6.2,NE,8.1,-,N/A,,Partly Cloudy,50,2011-11-15 08:00:00
9:30 AM,62.6,59.0,88,29.89,6.2,NE,5.8,-,N/A,,Partly Cloudy,50,2011-11-15 08:30:00
10:00 AM,66.2,60.8,83,29.89,6.2,NE,3.5,-,N/A,,Partly Cloudy,50,2011-11-15 09:00:00
10:30 AM,68.0,60.8,78,29.89,6.2,NNE,6.9,-,N/A,,Partly Cloudy,30,2011-11-15 09:30:00
10:50 AM,68.0,60.8,78,29.92,6.2,NE,5.8,-,N/A,,Mostly Cloudy,50,2011-11-15 09:50:00
11:00 AM,68.0,60.8,78,29.92,6.2,NE,5.8,-,N/A,,Mostly Cloudy,50,2011-11-15 10:00:00
11:30 AM,68.0,60.8,78,29.89,6.2,East,4.6,-,N/A,,Scattered Clouds,80,2011-11-15 10:30:00
12:00 PM,68.0,60.8,78,29.89,6.2,ESE,9.2,-,N/A,Thunderstorm,Scattered Clouds,110,2011-11-15 11:00:00
12:30 PM,68.0,60.8,78,29.86,6.2,ESE,8.1,-,N/A,Rain-Thunderstorm,Thunderstorms and Rain,110,2011-11-15 11:30:00
12:35 PM,66.2,62.6,88,29.89,6.2,ESE,3.5,-,N/A,Rain-Thunderstorm,Rain Showers,120,2011-11-15 11:35:00
12:38 PM,62.6,59.0,88,29.89,0.7,SSW,12.7,26.5,N/A,Rain-Thunderstorm,Rain Showers,200,2011-11-15 11:38:00
12:46 PM,59.0,59.0,100,29.89,2.5,South,9.2,25.3,N/A,Rain-Thunderstorm,Thunderstorms and Rain,180,2011-11-15 11:46:00
12:48 PM,59.0,59.0,100,29.89,4.3,South,6.9,25.3,N/A,Thunderstorm,Thunderstorm,180,2011-11-15 11:48:00
1:00 PM,59,57,91,29.87,9,SE,4.6,,,Thunderstorm,Thunderstorm,130,2011-11-15 12:00:00
1:00 PM,59.0,59.0,100,29.86,6.2,SE,4.6,-,N/A,Thunderstorm,Thunderstorm,130,2011-11-15 12:00:00
2:00 PM,60.8,60.8,100,29.86,6.2,North,2.3,-,N/A,,Partly Cloudy,10,2011-11-15 13:00:00
2:30 PM,62.6,60.8,94,29.86,6.2,Variable,1.2,-,N/A,,Partly Cloudy,0,2011-11-15 13:30:00
3:00 PM,62.6,60.8,94,29.86,6.2,Variable,2.3,-,N/A,,Partly Cloudy,0,2011-11-15 14:00:00
3:30 PM,64.4,60.8,88,29.86,6.2,NE,3.5,-,N/A,,Partly Cloudy,50,2011-11-15 14:30:00
4:00 PM,64.4,60.8,88,29.86,6.2,NE,4.6,-,N/A,,Partly Cloudy,40,2011-11-15 15:00:00
4:30 PM,64.4,60.8,88,29.86,6.2,Variable,1.2,-,N/A,,Partly Cloudy,0,2011-11-15 15:30:00
5:00 PM,64.4,60.8,88,29.86,6.2,Variable,1.2,-,N/A,,Scattered Clouds,0,2011-11-15 16:00:00
5:30 PM,64.4,60.8,88,29.86,6.2,Variable,1.2,-,N/A,,Scattered Clouds,0,2011-11-15 16:30:00
6:00 PM,62.6,60.8,94,29.86,6.2,SW,3.5,-,N/A,,Scattered Clouds,230,2011-11-15 17:00:00
6:30 PM,62.6,59.0,88,29.89,6.2,WSW,6.9,-,N/A,,Partly Cloudy,240,2011-11-15 17:30:00
7:00 PM,62,59,87,29.89,12,West,3.5,,,,Scattered Clouds,280,2011-11-15 18:00:00
7:00 PM,62.6,59.0,88,29.89,6.2,WSW,6.9,-,N/A,,Partly Cloudy,250,2011-11-15 18:00:00
7:30 PM,62.6,59.0,88,29.89,6.2,SW,4.6,-,N/A,,Partly Cloudy,230,2011-11-15 18:30:00
8:00 PM,60.8,57.2,88,29.89,6.2,West,3.5,-,N/A,,Partly Cloudy,280,2011-11-15 19:00:00
8:30 PM,59.0,57.2,94,29.89,6.2,Variable,1.2,-,N/A,,Partly Cloudy,0,2011-11-15 19:30:00
9:00 PM,59.0,57.2,94,29.89,6.2,Calm,Calm,-,N/A,,Partly Cloudy,0,2011-11-15 20:00:00
9:30 PM,57.2,55.4,94,29.89,6.2,Calm,Calm,-,N/A,,Partly Cloudy,0,2011-11-15 20:30:00
10:00 PM,57.2,55.4,94,29.92,6.2,Calm,Calm,-,N/A,,Partly Cloudy,0,2011-11-15 21:00:00
10:30 PM,57.2,55.4,94,29.92,6.2,Calm,Calm,-,N/A,,Partly Cloudy,0,2011-11-15 21:30:00
11:00 PM,57.2,57.2,100,29.89,6.2,West,2.3,-,N/A,,Partly Cloudy,260,2011-11-15 22:00:00
11:30 PM,57.2,55.4,94,29.92,6.2,Calm,Calm,-,N/A,,Partly Cloudy,0,2011-11-15 22:30:00